Flag for U.S.A. Weather past 2 weeks in Bradenton, Florida, U.S.A.

Now
70 °F

Clear.


Feels Like: 67 °F
Forecast: 70 / 84 °F
Wind: 7 mph from Northeast

Location: Sarasota-Bradenton International Airport

Current Time: Oct 22, 2014 at 6:34:05 AM

Latest Report: Oct 22, 2014 at 5:53 AM


Visibility: 10 mi

Pressure: 29.92 "Hg

Humidity: 90%

Dew point: 67 °F

Location of BradentonLocation

Historic Weather in Bradenton — Graph

°F

Bradenton temperature yesterday

Maximum temperature yesterday: 83 °F (at 1:53 PM)
Minimum temperature yesterday: 69 °F (at 7:53 AM)
Average temperature yesterday: 76 °F

Past Weeks' High & Low Weather Summary

 TemperatureHumidityPressure
High90 °F (Oct 10, 4:53 PM)100% (Oct 14, 9:53 PM)30.13 "Hg (Oct 14, 9:53 PM)
Low60 °F (Oct 18, 4:53 AM)35% (Oct 17, 2:53 PM)29.88 "Hg (Oct 21, 4:53 PM)
Average76 °F75%29.99 "Hg
* Reported Oct 7 4:53 AM — Oct 22 4:53 AM, Bradenton, Weather by CustomWeather, © 2014

Note: Actual official high and low records may vary slightly from our data, if they occured in-between our weather recording intervals... More about our weather records

Advertising

Bradenton weather history for previous 24 hours

 ConditionsComfort  
Time TempWeatherWind HumidityBarometerVisibility
4:53 AM
Oct 22
70 °FClear.8 mph90%29.91 "Hg10 mi
3:53 AM71 °FClear.5 mph90%29.90 "Hg10 mi
2:53 AM71 °FClear.3 mph90%29.90 "Hg10 mi
1:53 AM71 °FClear.3 mph87%29.92 "Hg10 mi
12:53 AM73 °FClear.5 mph81%29.93 "Hg10 mi
11:53 PM
Oct 21
72 °FClear.5 mph87%29.94 "Hg10 mi
10:53 PM74 °FClear.3 mph79%29.95 "Hg10 mi
9:53 PM75 °FClear.5 mph74%29.93 "Hg10 mi
8:53 PM76 °FPassing clouds.3 mph72%29.92 "Hg10 mi
7:53 PM77 °FSunny.No wind69%29.91 "Hg10 mi
6:53 PM79 °FSunny.3 mph60%29.90 "Hg10 mi
5:53 PM83 °FSunny.5 mph53%29.89 "Hg10 mi
4:53 PM83 °FSunny.7 mph53%29.88 "Hg10 mi
3:53 PM82 °FSunny.6 mph60%29.89 "Hg10 mi
2:53 PM82 °FSunny.7 mph60%29.90 "Hg10 mi
1:53 PM83 °FSunny.3 mph55%29.92 "Hg10 mi
12:53 PM82 °FSunny.No wind56%29.95 "Hg10 mi
11:53 AM81 °FPassing clouds.3 mph58%29.95 "Hg10 mi
10:53 AM80 °FScattered clouds.5 mph64%29.96 "Hg10 mi
9:53 AM75 °FSunny.6 mph82%29.96 "Hg10 mi
8:53 AM72 °FSunny.No wind87%29.94 "Hg10 mi
7:53 AM69 °FClear.3 mph93%29.93 "Hg10 mi
6:53 AM70 °FClear.3 mph90%29.91 "Hg10 mi
Weather by CustomWeather, © 2014

See weather overviewHow to use our weather pages